Other Public Products
Issued by NWS Grand Forks, ND

Home | Current Version | Previous Version | Text Only | Print | Product List | Glossary On
Versions: 1 2 3 4 5 6 7 8 9 10 11 12 13 14 15 16 17 18 19 20 21 22 23 24 25 26 27 28 29 30 31 32 33 34 35 36 37 38 39 40 41 42 43 44 45 46 47 48 49 50
000
FPUS83 KFGF 231331
OPUFGF
PRAIRIE TO PINES WEATHER ROUNDUP
NATIONAL WEATHER SERVICE EASTERN NORTH DAKOTA/GRAND FORKS ND
800 AM CDT SAT AUG 23 2014

 **SATELLITE DATA USED TO AUGMENT SKY COVER AT AUTOMATED STATIONS**
 *****  WEATHER ACROSS EASTERN NORTH DAKOTA  *****

CITY           SKY/WX    TMP DP  RH WIND       PRES   REMARKS
GRAND FORKS    FOG       59  57  94 N14       30.04F VSB 3/4
GRAND FORKS AF CLOUDY    59  59 100 N12       30.06S
GRAND CITY NWS   N/A     45 N/A N/A N13         N/A
BUXTON           N/A     62  62  99 N12         N/A
DEVILS LAKE    CLOUDY    57  52  82 NE12      30.06S
FARGO          FOG       66  65  96 NE7       30.00F VSB 1
WAHPETON ARPT  CLOUDY    68  64  88 E5        29.98F
$$

 *****  WEATHER ACROSS CENTRAL AND WESTERN NORTH DAKOTA  *****

CITY           SKY/WX    TMP DP  RH WIND       PRES   REMARKS
JAMESTOWN      CLOUDY    61  59  93 NE12      30.02S FOG
BISMARCK       LGT RAIN  61  59  93 E9        30.02S
MINOT          CLOUDY    56  53  90 NE13      30.09S
MINOT AFB      CLOUDY    57  56  99 NE14      30.10R
GARRISON         N/A     57  56  96 E15       30.05F
WILLISTON      CLOUDY    58  52  80 E16       30.07S
DICKINSON      LGT RAIN  59  58  96 E15       29.98F
HETTINGER      LGT RAIN  61  59  93 E22G31    29.96F
$$

 *****  OTHER OBSERVATIONS NORTHEAST NORTH DAKOTA  *****

CITY           SKY/WX    TMP DP  RH WIND       PRES   REMARKS
WALHALLA       FOG       57  57 100 N12       30.11F VSB 1/2
LANGDON        CLOUDY    55  55 100 NE13      30.10F FOG
CAVALIER       CLOUDY    57  55  94 N10       30.09F FOG
GRAFTON        CLOUDY    57  57 100 N12G17    30.07S
CANDO          CLOUDY    57  54  88 NE16G23   30.09F
FORT TOTTEN      N/A     57  56  95 NE7       29.95
ROLLA          FOG       54  54 100 NE13      30.13S VSB 3/4
RUGBY          CLOUDY    55  55 100 NE15      30.09S
 ***** THE ABOVE OBSERVATIONS ARE NON NWS ARE NOT QUALITY
        CONTROLLED AND MAY MIS-REPORT RAIN FOR SNOW...
$$

 *****  OTHER OBSERVATIONS SOUTHEAST NORTH DAKOTA *****

CITY           SKY/WX    TMP DP  RH WIND       PRES   REMARKS
COOPERSTOWN    NOT AVBL
VALLEY CITY    FOG       59  59 100 NE10      30.02F VSB 1/2
OAKES            N/A     63  63 100 NE12      29.98F FOG
GWINNER        CLOUDY    64  64 100 NE13      29.99F VSB 0
SHEYENNE NWR     N/A     63  63  99 NE8       29.95
BUFFALO          N/A     62  59  92 NE14        N/A
WYNDMERE       NOT AVBL
 ***** THE ABOVE OBSERVATIONS ARE NON NWS ARE NOT QUALITY
       CONTROLLED AND MAY MIS-REPORT RAIN FOR SNOW...
$$

  *****  WEATHER ACROSS NORTHERN MINNESOTA  *****

CITY           SKY/WX    TMP DP  RH WIND       PRES   REMARKS
FLAG ISLAND    MOSUNNY   70  64  83 NE7       30.07S
WARROAD        FOG       63  61  94 NW5       30.08S VSB 3/4
ROSEAU         CLOUDY    63  57  82 N7        30.08S HAZE
HALLOCK        CLOUDY    59  57  94 N9        30.08S
THF RVR FALLS  CLOUDY    64  63  94 NE9       30.05S
HALSTAD          N/A     66  64  95 N7          N/A
FOSSTON        CLOUDY    66  64  94 E3        30.05S
BAUDETTE       CLOUDY    64  63  96 E5        30.07S
WASKISH        CLOUDY    64  64 100 CALM      30.06F FOG
CROOKSTON      FOG       64  63  94 NE7       30.04S VSB 3/4
$$
  *****  WEATHER ACROSS CENTRAL AND WEST MINNESOTA  *****

CITY           SKY/WX    TMP DP  RH WIND       PRES   REMARKS
BEMIDJI        CLOUDY    67  66  97 E6        30.05S
PARK RAPIDS    CLOUDY    66  66 100 E6        30.04S FOG
WADENA         CLOUDY    64  64 100 E6        30.02F FOG
DETROIT LAKES  CLOUDY    68  66  94 SE8       30.03F
MOORHEAD       CLOUDY    68  68 100 NE3       30.01R FOG
FERGUS FALLS   CLOUDY    70  66  88 E8        29.99F
ELBOW LAKE     PTSUNNY   68  66  93 E3        29.99F
MORRIS MN      CLOUDY    70  68  94 E5        29.96F FOG
STAPLES        CLOUDY    64  63  94 E7        30.03F
WHEATON        CLOUDY    66  64  94 E8        29.98F
$$
  *****  WEATHER ELSEWHERE ACROSS MINNESOTA  *****

CITY           SKY/WX    TMP DP  RH WIND       PRES   REMARKS
DULUTH         CLOUDY    64  60  87 NE8       30.07S
INTRNTL FALLS  CLOUDY    65  65 100 E5        30.07S
ELY            PTSUNNY   64  61  88 E5        30.09R
CLOQUET        CLOUDY    63  61  94 E7        30.07R
BRAINERD       CLOUDY    62  61  96 VRB6      30.05S
HIBBING        CLOUDY    65  61  87 SE3       30.08S
ALEXANDRIA     CLOUDY    67  65  93 E9        30.02F
SAINT CLOUD    CLOUDY    65  63  93 NE7       30.02F FOG
MINNEAPOLIS    CLOUDY    70  68  93 NE9       30.00S
$$

  *****  WEATHER ACROSS SOUTH DAKOTA  *****

CITY           SKY/WX    TMP DP  RH WIND       PRES   REMARKS
SIOUX FALLS    CLOUDY    71  67  87 E10       29.88F
BROOKINGS      NOT AVBL
WATERTOWN      LGT RAIN  68  66  93 E10       29.91F FOG
HURON          CLOUDY    71  68  90 E12       29.85R
SISSETON         N/A     67  67 100 E6        29.96F
ABERDEEN       LGT RAIN  64  64 100 NE16G24   29.93F FOG
MITCHELL       CLOUDY    70  68  93 SE8       29.88R
PIERRE         CLOUDY    67  67 100 E14       29.84F
MOBRIDGE       LGT RAIN  63  62  97 NE18G26   29.90F
RAPID CITY     LGT RAIN  64  61  90 CALM      29.90F
$$

  *****  SOME WEATHER IN NEARBY STATES *****

CITY           SKY/WX    TMP DP  RH WIND       PRES   REMARKS
GLASGOW MT     LGT RAIN  55  54  96 NE24G33   30.01F
GREAT FALLS MT HVY RAIN  48  46  93 NW18G26   30.09S FOG
CHEYENNE WY    CLOUDY    57  55  93 SW5       30.01R
SCOTTSBLUFF NE PTCLDY    61  60  97 E7        29.92S
OMAHA NE       CLOUDY    72  67  84 VRB6      29.88S
DES MOINES IA  LGT RAIN  73  70  90 S9        29.94F
DAVENPORT IA   PTSUNNY   76  73  91 E3        29.96R FOG
CHICAGO IL     PTSUNNY   75  72  90 CALM      29.99S FOG
EAU CLAIRE WI  CLOUDY    68  68 100 N6        29.99S FOG
LA CROSSE WI   CLOUDY    74  70  87 CALM      29.97R
$$

  *****  SOME NATIONAL WEATHER *****

CITY           SKY/WX    TMP DP  RH WIND       PRES   REMARKS
LA GUARDIA NY  PTSUNNY   69  60  73 E12       30.08S
RALEIGH NC     PTSUNNY   77  70  79 SE7       29.97R
ATLANTA GA     MOSUNNY   79  70  74 NW9       30.04R
NEW ORLEANS LA MOSUNNY   84  77  79 NW9       30.04R HX  94
OKLAHOMA CITY  SUNNY     72  64  76 S8        29.97R
ALBUQUERQUE NM PTCLDY    59  55  87 NE5       30.18R
SALT LAKE CITY CLOUDY    55  48  77 S7        30.02R
LOS ANGELES CA MOCLDY    67  60  78 CALM      29.95S
BOISE ID       CLEAR     53  46  77 CALM      30.03R
SEATTLE WA     CLEAR     59  53  80 SE3       30.14S
$$

*** WEATHER ACROSS MANITOBA...SASKATCHEWAN AND ONTARIO ***
                ***ONTARIO***

CITY           SKY/WX    TMP DP  RH WIND       PRES   REMARKS
GERALDTON      MOSUNNY   66  63  88 N3        30.12S
THUNDER BAY    PTSUNNY   64  63  94 CALM      30.10R
SIOUX LOOKOUT  CLOUDY    64  63  94 NE3       30.12R
TORONTO        CLOUDY    68  63  83 E8        30.08S
BIG TROUT LK   LGT RAIN  45  43  93 N7G18     30.30R
PICKLE LAKE    CLOUDY    55  54  94 NE9G18    30.17S
DRYDEN         SUNNY     64  63  94 E6        30.11R
KENORA         PTSUNNY   66  64  94 E9        30.10S
$$
                *** MANITOBA***

CITY           SKY/WX    TMP DP  RH WIND       PRES   REMARKS
BRANDON        CLOUDY    54  52  94 NE15      30.17S
DAUPHIN        LGT RAIN  54  54 100 NE13      30.22S FOG
ISLAND LAKE    CLOUDY    45  43  93 NE9       30.36
PILOT MOUND      N/A     55  54  94 NE10G18     N/A
THE PAS        MOSUNNY   52  46  82 NE6       30.37F
THOMPSON       PTSUNNY   46  39  76 NE13      30.45R
WINNIPEG       DRZL/FOG  57  55  94 N12       30.13S VSB 1/2
LYNN LAKE      CLOUDY    48  45  87 MISG      30.46R
CHURCHILL      PTSUNNY   48  36  61 N14       30.49R
GILLAM         MOSUNNY   46  41  81 NE14G22   30.46S
$$
                ***SASKATCHEWAN***

CITY           SKY/WX    TMP DP  RH WIND       PRES   REMARKS
ESTEVAN        CLOUDY    54  52  94 NE15      30.14F
KINDERSLEY     CLOUDY    52  50  93 N9        30.27R
LLOYDMINSTER   MOCLDY    46  43  87 N7        30.33F
PRINCE ALBERT  MOCLDY    54  52  94 E7        30.33S
REGINA         CLOUDY    54  48  82 NE14G21   30.21S


USA.gov is the U.S. government's official web portal to all federal, state and local government web resources and services.